Regional Weather Roundup
Issued by NWS Sioux Falls, SD

Home | Current Version | Previous Version | Text Only | Print | Product List | Glossary Off
Versions: 1 2 3 4 5 6 7 8 9 10 11 12 13 14 15 16 17 18 19 20 21 22 23 24 25 26 27 28 29 30 31 32 33 34 35 36 37 38 39 40 41 42 43 44 45 46 47 48 49 50

000
ASUS43 KFSD 291302
RWRFSD

WEATHER ROUNDUP FOR SE SOUTH DAKOTA/SW MINNESOTA/NW IOWA
NATIONAL WEATHER SERVICE SIOUX FALLS SD
800 AM CDT THU SEP 29 2016

NOTE: "FAIR" INDICATES FEW OR NO CLOUDS BELOW 12,000 FEET WITH NO
SIGNIFICANT WEATHER AND OR OBSTRUCTIONS TO VISIBILITY.


SDZ038>040-050-052>070-291400-
SOUTHEAST SOUTH DAKOTA

CITY           SKY/WX    TMP DP  RH WIND       PRES   REMARKS
BROOKINGS      FOG       37  36  93 CALM      30.46R VSB 3/4
CHAMBERLAIN    CLOUDY    42  42 100 SE5       30.44R
HURON          CLOUDY    38  38 100 SE3       30.45R
MADISON        FOG       37  37 100 N3        30.46R VSB<1/4
MITCHELL       FOG       37  37 100 CALM      30.47R VSB 3/4
SIOUX FALLS    CLOUDY    41  40  96 CALM      30.46R
WINNER         FAIR      44  40  85 S7        30.42S
YANKTON        CLOUDY    41  39  93 CALM      30.44R
$$

MNZ071-072-080-081-089-090-097-098-291400-
SOUTHWEST MINNESOTA

CITY           SKY/WX    TMP DP  RH WIND       PRES   REMARKS
FAIRMONT       PTCLDY    46  45  96 CALM      30.44R
JACKSON        CLEAR     43  41  93 NW3       30.45R FOG
LUVERNE        CLOUDY    41  39  93 CALM      30.46R
MARSHALL       CLOUDY    39  38  96 W6        30.48R
MONTEVIDEO     CLEAR     45  45 100 CALM      30.49R
PIPESTONE      CLOUDY    45  43  93 NE3       30.46R
REDWOOD FALLS  CLEAR     48  44  86 N3        30.46R
TRACY          CLOUDY    44  44  99 CALM      30.47R
WINDOM         CLEAR     45  43  93 N5        30.45R
WORTHINGTON    CLEAR     42  42 100 N6        30.46R
$$

IAZ001>003-012>014-020>022-031-032-NEZ013-014-SDZ071-291400-
NORTHWEST IOWA

CITY           SKY/WX    TMP DP  RH WIND       PRES   REMARKS
CHEROKEE       CLEAR     43  43 100 NE3       30.44R
DENISON        CLEAR     45  45 100 CALM      30.41R FOG
ESTHERVILLE    CLEAR     44  44 100 N6        30.43R
LE MARS        CLEAR     41  41 100 CALM      30.46R
ORANGE CITY    CLEAR     46  45  93 CALM      30.44R
SHELDON        CLOUDY    39  39 100 CALM      30.43S FOG
SIOUX CITY     CLOUDY    43  42  97 NW3       30.45R
SPENCER        CLEAR     42  42 100 NW5       30.44R
STORM LAKE     CLEAR     48  46  93 N7        30.43R
$$

ABBREVIATIONS USED IN REMARKS
   TC - TEMPERATURE IN CELSIUS
  WCI - WIND CHILL INDEX
   HX - HEAT INDEX
  VSB - VISIBILITY





USA.gov is the U.S. government's official web portal to all federal, state and local government web resources and services.